Location: Newark
(50.0306°N, 2.3272°E)
Time: 01:43:22
(UTC+00:00)

CAS-4B - Visible Passes

Search period start: 22 January 2020 00:00
Search period end: 01 February 2020 00:00
Orbit: 529 x 545 km, 43.0° (Epoch: 21 January)

Date Brightness Start Highest point End Pass type
(mag) Time Alt. Az. Time Alt. Az. Time Alt. Az.
22 Jan ? 05:12:16 30° S 05:12:28 30° S 05:16:06 10° ESE visible
22 Jan ? 06:48:40 10° WSW 06:52:01 24° SSW 06:55:21 10° SE visible
23 Jan ? 05:02:33 30° S 05:02:33 30° S 05:05:50 10° ESE visible
23 Jan ? 06:38:30 10° WSW 06:41:44 22° SSW 06:44:56 10° SE visible
24 Jan ? 04:52:51 28° SSE 04:52:51 28° SSE 04:55:34 10° ESE visible
24 Jan ? 06:28:23 10° WSW 06:31:25 20° SSW 06:34:27 10° SSE visible
25 Jan ? 04:43:08 23° SSE 04:43:08 23° SSE 04:45:17 10° ESE visible
25 Jan ? 06:18:29 11° WSW 06:21:07 18° SSW 06:23:54 10° SSE visible
26 Jan ? 04:33:27 19° SE 04:33:27 19° SE 04:34:58 10° SE visible
26 Jan ? 06:08:48 12° WSW 06:10:48 16° SSW 06:13:15 10° SSE visible
27 Jan ? 04:23:47 15° SE 04:23:47 15° SE 04:24:37 10° SE visible
27 Jan ? 05:59:09 12° SW 06:00:27 13° SSW 06:02:29 10° S visible
28 Jan ? 04:14:11 10° SE 04:14:11 10° SE 04:14:16 10° SE visible
28 Jan ? 05:49:32 11° SW 05:50:06 11° SSW 05:51:25 10° SSW visible
